Hourly Data Report for April 30, 2019

CLYDE RIVER A
NUNAVUT
Current Station Operator: NAVCAN

70°29'09.000" N
68°31'01.000" W
26.50 m
2400804
71090
YCY

Download Data

Hourly Data (April 2019)
Hourly Data Report for April 30, 2019
TIME
LST
Temp Definition
°C
Dew Point Definition
°C
Rel Hum Definition
%
Precip. Amount Definition
mm

Wind Dir Definition
10's deg

Wind Spd Definition
km/h
Visibility Definition
km
Stn Press Definition
kPa
Hmdx Definition


Wind Chill Definition


Weather Definition


00:00 -10.0 -12.2 84 0.0 32 32 16.1 101.87   -20 LegendNANA
01:00 -10.7 -12.3 88 0.0 32 22 16.1 101.92   -19 LegendNANA
02:00 -10.5 -12.3 87 0.0 32 28 16.1 101.91   -20 LegendNANA
03:00 -10.0 -11.5 89 0.0 32 39 16.1 101.83   -21 LegendNANA
04:00 -9.1 -11.0 86 0.0 32 32 16.1 101.85   -19 LegendNANA
05:00 -8.5 -11.4 80 0.0 31 32 16.1 101.80   -18 LegendNANA
06:00 -7.6 -9.6 86 0.0 32 45 6.4 101.72   -18 Fog
07:00 -6.8 -8.5 88 0.0 32 37 14.5 101.83   -16 LegendNANA
08:00 -6.4 -7.8 90 0.0 31 50 1.2 101.69   -17 Snow
09:00 -6.2 -7.6 90 0.0 32 39 4.8 101.75   -16 Fog
10:00 -5.4 -7.4 86 0.0 32 52 4.0 101.62   -16 Fog
11:00 -4.8 -7.5 82 0.0 32 48 6.4 101.61   -15 Fog
12:00 -4.3 -7.0 81 0.0 31 46 8.1 101.68   -14 Haze
13:00 -4.6 -6.9 84 0.0 32 39 8.1 101.60   -13 Fog
14:00 -4.6 -6.6 86 0.0 32 45 6.4 101.65   -14 Fog
15:00 -4.6 -6.6 86 0.0 32 41 11.3 101.66   -14 LegendNANA
16:00 -4.6 -6.4 87 0.0 33 35 16.1 101.67   -13 LegendNANA
17:00 -5.0 -6.7 88 0.0 32 37 16.1 101.63   -14 LegendNANA
18:00 -5.5 -6.9 90 0.0 32 39 16.1 101.61   -15 LegendNANA
19:00 -5.6 -7.0 90 0.0 33 35 16.1 101.64   -14 LegendNANA
20:00 -6.4 -7.8 90 0.0 32 30 16.1 101.64   -15 LegendNANA
21:00 -6.6 -7.7 92 0.0 32 30 16.1 101.61   -15 LegendNANA
22:00 -6.8 -9.1 84 0.0 32 35 16.1 101.57   -16 LegendNANA
23:00 -6.7 -8.8 85 0.0 31 24 16.1 101.60   -14 LegendNANA

Notes on Data Quality.

Legend

  • E = Estimated
  • M = Missing
  • NA = Not Available*
  • [empty] = Indicates an unobserved value
Date modified: